User: anonymous   Login
Location: Unspecified
(0.0000°N, 0.0000°E)
Time: 02:58:26
(UTC+00:00)
Language:

STARLINK-34567 - Orbit

View from above orbital plane
View from above orbital plane
View from above satellite
View from above satellite

Ground track
Ground track

The orbit is defined by the following mean orbital elements,

1 64795U          26145.41512664 +.00000000 +00000-0 +29665-3 0 00002
2 64795  70.0015 300.8393 0002523 264.5814  95.5057 14.98336520    06
Epoch (UTC): 25 May 2026 09:57:46
Eccentricity: 0.0002523
inclination: 70.0015°
perigee height: 570 km
apogee height: 574 km
right ascension of ascending node: 300.8393°
argument of perigee: 264.5814°
revolutions per day: 14.98336520
mean anomaly at epoch: 95.5057°

The dashed part of the orbit path shows where the satellite is in the earth's shadow,  

DLR